TimeCST,TemperatureF,Dew PointF,Humidity,Sea Level PressureIn,VisibilityMPH,Wind Direction,Wind SpeedMPH,Gust SpeedMPH,PrecipitationIn,Events,Conditions,WindDirDegrees,DateUTC
12:52 AM,-6.0,-11.9,75,30.74,10.0,NW,6.9,-,N/A,,Clear,310,2013-12-07 06:52:00
1:52 AM,-6.0,-11.9,75,30.74,10.0,WNW,10.4,-,N/A,,Clear,300,2013-12-07 07:52:00
2:52 AM,-7.1,-11.9,79,30.76,10.0,WNW,8.1,-,N/A,,Clear,300,2013-12-07 08:52:00
3:52 AM,-7.1,-13.0,75,30.76,10.0,NW,8.1,-,N/A,,Clear,310,2013-12-07 09:52:00
4:52 AM,-9.0,-13.0,83,30.77,10.0,West,6.9,-,N/A,,Clear,280,2013-12-07 10:52:00
5:52 AM,-9.0,-15.0,75,30.78,10.0,West,4.6,-,N/A,,Clear,280,2013-12-07 11:52:00
6:52 AM,-9.0,-15.0,75,30.77,10.0,WNW,3.5,-,N/A,,Clear,300,2013-12-07 12:52:00
7:52 AM,-9.0,-14.1,79,30.79,10.0,West,5.8,-,N/A,,Clear,280,2013-12-07 13:52:00
8:52 AM,-5.1,-11.0,76,30.78,10.0,WNW,5.8,-,N/A,,Clear,300,2013-12-07 14:52:00
9:52 AM,-2.0,-7.1,79,30.79,10.0,SW,3.5,-,N/A,,Clear,230,2013-12-07 15:52:00
10:52 AM,1.9,-6.0,69,30.79,10.0,SW,5.8,-,N/A,,Clear,220,2013-12-07 16:52:00
11:52 AM,5.0,-5.1,63,30.76,10.0,West,5.8,-,N/A,,Clear,270,2013-12-07 17:52:00
12:52 PM,8.1,-4.0,58,30.72,10.0,West,4.6,-,N/A,,Clear,280,2013-12-07 18:52:00
1:52 PM,9.0,-2.9,59,30.71,10.0,WSW,5.8,-,N/A,,Clear,250,2013-12-07 19:52:00
2:52 PM,9.0,-2.9,59,30.69,10.0,Variable,5.8,-,N/A,,Clear,0,2013-12-07 20:52:00
3:52 PM,9.0,-2.0,61,30.67,10.0,WSW,3.5,-,N/A,,Clear,240,2013-12-07 21:52:00
4:52 PM,6.1,-2.9,67,30.66,10.0,NNW,5.8,-,N/A,,Clear,330,2013-12-07 22:52:00
5:52 PM,3.0,-4.0,73,30.64,10.0,North,6.9,-,N/A,,Clear,360,2013-12-07 23:52:00
6:52 PM,3.0,-4.0,73,30.64,10.0,NNE,5.8,-,N/A,,Clear,20,2013-12-08 00:52:00
7:52 PM,1.9,-4.0,76,30.63,10.0,NNE,5.8,-,N/A,,Clear,30,2013-12-08 01:52:00
8:52 PM,3.0,-2.9,76,30.63,10.0,NE,4.6,-,N/A,,Overcast,50,2013-12-08 02:52:00
9:52 PM,3.9,-2.9,73,30.62,10.0,ESE,5.8,-,N/A,,Overcast,110,2013-12-08 03:52:00
10:52 PM,5.0,-0.9,76,30.60,2.5,SE,6.9,-,0.00,Snow,Light Snow,130,2013-12-08 04:52:00
11:00 PM,5.0,-0.9,76,30.48,1.8,ESE,6.9,-,0.00,Snow,Light Snow,120,2013-12-08 05:00:00
11:23 PM,6.1,-0.0,76,30.48,2.0,SE,8.1,-,0.00,Snow,Light Snow,130,2013-12-08 05:23:00
11:52 PM,6.1,1.9,83,30.56,2.0,SE,9.2,-,0.00,Snow,Light Snow,130,2013-12-08 05:52:00